Portada
METAR-TAF:

METAR-TAF

Aeroports :

Newman, Austràlia

latitud: 23-25-04S, longitud: 119-48-10E, altitud: 525 m

Observació

L'informe es va fer fa 1 hora i 23 minuts, a les 15:00 UTC
Vent 8 kt del Sud
Temperatura 24°C
Humitat 31%
Pressió 1016 hPa
Visibilitat 10 km o més

METAR: YNWN 191500Z AUTO 18008KT 9999 // NCD 24/06 Q1016

Hora: 00:23 (16:23 UTC)


TAF: manca

Observacions i pronòstics meteorològics de més de 4000 aeroports (METAR i TAF).

Les estacions disponibles són els punts grocs i vermells al mapa.

Posi el ratolí al punt desitjat per veure el nom de l'estació.

Feu clic per veure les observacions i els pronòstics meteorològics.

Per canviar el mapa: feu clic els botons verds amb una creu de color negre per apropar; al botó verd amb un guió per allunyar la imatge; o en les fletxes verdes per a mapes adjacents.


METAR-TAF: